Location: Caltech
(34.1382°N, 118.1253°W)
Time: 17:14:18
(UTC-07:00)

Cosmos 1484 Rocket - Visible Passes

Search period start: 17 April 2014 00:00
Search period end: 27 April 2014 00:00
Orbit: 516 x 577 km, 97.4° (Epoch: 16 April)

Date Brightness Start Highest point End Pass type
(mag) Time Alt. Az. Time Alt. Az. Time Alt. Az.
17 Apr 3.2 20:42:37 10° S 20:46:36 65° W 20:50:32 10° NNW visible
18 Apr 2.9 20:37:15 10° S 20:41:15 77° WSW 20:45:12 10° NNW visible
19 Apr 2.8 20:31:53 10° SSE 20:35:53 90° WSW 20:39:50 10° NNW visible
20 Apr 2.7 20:26:32 10° SSE 20:30:31 77° ENE 20:34:26 10° N visible
21 Apr 2.8 20:21:13 10° SSE 20:25:09 65° ENE 20:29:02 10° N visible
22 Apr 2.9 20:15:54 10° SSE 20:19:46 54° ENE 20:23:36 10° N visible
23 Apr 3.1 20:10:37 10° SSE 20:14:24 46° ENE 20:18:08 10° N visible
24 Apr 3.4 20:05:22 10° SE 20:09:02 39° ENE 20:12:40 10° N visible
24 Apr 5.8 21:42:32 10° WSW 21:43:49 11° W 21:45:06 10° WNW visible
25 Apr 3.6 20:00:07 10° SE 20:03:39 33° ENE 20:07:09 10° N visible
25 Apr 5.7 21:36:27 10° WSW 21:38:23 13° W 21:40:18 10° WNW visible
26 Apr 3.8 19:54:54 10° SE 19:58:17 28° ENE 20:01:37 10° NNE visible
26 Apr 5.6 21:30:34 10° SW 21:32:57 16° W 21:35:18 10° WNW visible
